Kincheloe, MI

3:02 AM EST on February 27, 2017 (GMT -0500)
Chippewa County International

Weather History for KCIU - January, 2014

Change the Weather History Date:

Sunday, January 12, 2014

  Actual Average Record
Temperature  
Mean Temperature 32 °F -  
Max Temperature 35 °F 24 °F 48 °F (2013)
Min Temperature 30 °F 1 °F -16 °F (1980)
Degree Days  
Heating Degree Days 32    
Moisture  
Dew Point 28 °F    
Average Humidity 87    
Maximum Humidity 100    
Minimum Humidity 75    
Precipitation  
Precipitation 0.00 in - - ()
Sea Level Pressure  
Sea Level Pressure 29.57 in    
Wind  
Wind Speed 10 mph (SSW)    
Max Wind Speed 16 mph    
Max Gust Speed 21 mph    
Visibility 10 miles    
Events      
Averages and records for this station are not official NWS values.
T = Trace of Precipitation, MM = Missing Value Source: NWS Daily Summary

Daily Weather History Graph

Daily Weather History Graph

Search for Another Location

Airport or City:

Trip Planner

Search our weather history database for the weather conditions in past years. The results will help you decide how hot, cold, wet, or windy it might be!

Date:

Astronomy

Jan. 12, 2014 Rise Set
Actual Time 8:18 AM EST 5:14 PM EST
Civil Twilight 7:44 AM EST 5:48 PM EST
Nautical Twilight 7:06 AM EST 6:25 PM EST
Astronomical Twilight 6:30 AM EST 7:02 PM EST
Moon 2:43 PM EST (1/12) 5:14 AM EST (1/12)
Length of Visible Light 10h 04m
Length of Day
8h 56m
Waxing Gibbous, 89% of the Moon is Illuminated
Jan 12
Waxing Gibbous
Jan 15
Full
Jan 24
Last Quarter
Jan 30
New
Feb 6
First Quarter

Hourly Weather History & Observations

Time (EST) Temp. Windchill Dew Point Humidity Pressure Visibility Wind Dir Wind Speed Gust Speed Precip Events Conditions
12:15 AM 30.2 °F 19.8 °F 30.2 °F 100% 29.45 in 10.0 mi West 13.8 mph 19.6 mph N/A   Overcast
12:35 AM 30.2 °F 20.2 °F 30.2 °F 100% 29.45 in 10.0 mi West 12.7 mph - N/A   Overcast
12:55 AM 30.2 °F 19.8 °F 30.2 °F 100% 29.45 in 10.0 mi West 13.8 mph - N/A   Overcast
1:15 AM 30.2 °F 20.8 °F 30.2 °F 100% 29.46 in 10.0 mi West 11.5 mph - N/A   Overcast
1:35 AM 30.2 °F 19.8 °F 30.2 °F 100% 29.48 in 10.0 mi West 13.8 mph 20.7 mph N/A   Overcast
1:55 AM 30.2 °F 19.3 °F 30.2 °F 100% 29.48 in 10.0 mi West 15.0 mph 18.4 mph N/A   Overcast
2:15 AM 30.2 °F 20.8 °F 30.2 °F 100% 29.49 in 10.0 mi West 11.5 mph 18.4 mph N/A   Overcast
2:35 AM 30.2 °F 20.2 °F 30.2 °F 100% 29.50 in 10.0 mi West 12.7 mph 18.4 mph N/A   Overcast
2:55 AM 30.2 °F 20.2 °F 30.2 °F 100% 29.52 in 10.0 mi West 12.7 mph 17.3 mph N/A   Overcast
3:15 AM 30.2 °F 20.2 °F 30.2 °F 100% 29.52 in 10.0 mi West 12.7 mph - N/A   Overcast
3:35 AM 30.2 °F 20.8 °F 30.2 °F 100% 29.54 in 10.0 mi West 11.5 mph - N/A   Overcast
3:55 AM 30.2 °F 20.2 °F 30.2 °F 100% 29.54 in 10.0 mi West 12.7 mph - N/A   Overcast
4:15 AM 30.2 °F 19.8 °F 30.2 °F 100% 29.55 in 10.0 mi West 13.8 mph - N/A   Overcast
4:35 AM 30.2 °F 21.3 °F 30.2 °F 100% 29.56 in 10.0 mi WSW 10.4 mph - N/A   Overcast
4:55 AM 30.2 °F 21.3 °F 30.2 °F 100% 29.57 in 10.0 mi West 10.4 mph - N/A   Overcast
5:15 AM 30.2 °F 22.6 °F 28.4 °F 93% 29.58 in 10.0 mi West 8.1 mph 16.1 mph N/A   Overcast
5:35 AM 30.2 °F 20.2 °F 28.4 °F 93% 29.59 in 10.0 mi WSW 12.7 mph 18.4 mph N/A   Overcast
5:55 AM 30.2 °F 22.6 °F 28.4 °F 93% 29.59 in 10.0 mi WSW 8.1 mph 16.1 mph N/A   Overcast
6:15 AM 30.2 °F 20.8 °F 28.4 °F 93% 29.60 in 10.0 mi West 11.5 mph - N/A   Overcast
6:35 AM 30.2 °F 21.9 °F 28.4 °F 93% 29.61 in 10.0 mi WSW 9.2 mph 16.1 mph N/A   Overcast
6:55 AM 30.2 °F 23.4 °F 28.4 °F 93% 29.62 in 10.0 mi WSW 6.9 mph - N/A   Overcast
7:15 AM 30.2 °F 25.4 °F 26.6 °F 86% 29.62 in 10.0 mi WSW 4.6 mph - N/A   Overcast
7:35 AM 30.2 °F 26.7 °F 26.6 °F 86% 29.63 in 10.0 mi WSW 3.5 mph - N/A   Overcast
7:55 AM 30.2 °F 26.7 °F 26.6 °F 86% 29.63 in 10.0 mi SW 3.5 mph - N/A   Overcast
8:15 AM 30.2 °F 25.4 °F 26.6 °F 86% 29.64 in 10.0 mi SW 4.6 mph - N/A   Overcast
8:35 AM 30.2 °F 25.4 °F 26.6 °F 86% 29.65 in 10.0 mi SW 4.6 mph - N/A   Overcast
8:55 AM 30.2 °F - 28.4 °F 93% 29.66 in 10.0 mi Calm Calm - N/A   Overcast
9:15 AM 30.2 °F 24.3 °F 28.4 °F 93% 29.67 in 10.0 mi SW 5.8 mph - N/A   Overcast
9:35 AM 30.2 °F 24.3 °F 26.6 °F 86% 29.67 in 10.0 mi WSW 5.8 mph - N/A   Overcast
9:55 AM 30.2 °F 25.4 °F 26.6 °F 86% 29.67 in 10.0 mi SW 4.6 mph - N/A   Overcast
10:15 AM 30.2 °F 25.4 °F 26.6 °F 86% 29.67 in 10.0 mi SSW 4.6 mph - N/A   Overcast
10:35 AM 30.2 °F 25.4 °F 26.6 °F 86% 29.67 in 10.0 mi South 4.6 mph - N/A   Overcast
10:55 AM 32.0 °F 25.6 °F 28.4 °F 87% 29.68 in 10.0 mi South 6.9 mph - N/A   Overcast
11:15 AM 33.8 °F 27.7 °F 26.6 °F 75% 29.67 in 10.0 mi South 6.9 mph - N/A   Overcast
11:35 AM 33.8 °F 27.0 °F 26.6 °F 75% 29.68 in 10.0 mi SSW 8.1 mph - N/A   Overcast
11:55 AM 33.8 °F 27.0 °F 28.4 °F 81% 29.67 in 10.0 mi SSW 8.1 mph 16.1 mph N/A   Overcast
12:15 PM 33.8 °F 25.3 °F 28.4 °F 81% 29.66 in 10.0 mi SSW 11.5 mph 17.3 mph N/A   Overcast
12:35 PM 33.8 °F 25.8 °F 28.4 °F 81% 29.66 in 10.0 mi SSW 10.4 mph 16.1 mph N/A   Overcast
12:55 PM 33.8 °F 24.8 °F 28.4 °F 81% 29.64 in 10.0 mi SSW 12.7 mph 18.4 mph N/A   Overcast
1:15 PM 33.8 °F 26.4 °F 28.4 °F 81% 29.64 in 10.0 mi SSW 9.2 mph 18.4 mph N/A   Overcast
1:35 PM 33.8 °F 27.7 °F 28.4 °F 81% 29.63 in 10.0 mi SSW 6.9 mph - N/A   Overcast
1:55 PM 33.8 °F 26.4 °F 28.4 °F 81% 29.62 in 10.0 mi South 9.2 mph - N/A   Overcast
2:15 PM 33.8 °F 27.7 °F 28.4 °F 81% 29.61 in 7.0 mi South 6.9 mph - N/A   Overcast
2:35 PM 33.8 °F 27.7 °F 28.4 °F 81% 29.62 in 10.0 mi South 6.9 mph - N/A   Mostly Cloudy
2:55 PM 33.8 °F 26.4 °F 28.4 °F 81% 29.61 in 10.0 mi SSE 9.2 mph - N/A   Overcast
3:15 PM 33.8 °F 27.0 °F 28.4 °F 81% 29.60 in 10.0 mi SSE 8.1 mph - N/A   Overcast
3:35 PM 33.8 °F 25.3 °F 30.2 °F 87% 29.58 in 10.0 mi SE 11.5 mph - N/A   Mostly Cloudy
3:55 PM 33.8 °F 23.9 °F 28.4 °F 81% 29.57 in 10.0 mi SE 15.0 mph - N/A   Mostly Cloudy
4:15 PM 33.8 °F 24.3 °F 28.4 °F 81% 29.56 in 10.0 mi SE 13.8 mph - N/A   Partly Cloudy
4:35 PM 33.8 °F 24.8 °F 28.4 °F 81% 29.54 in 10.0 mi ESE 12.7 mph - N/A   Clear
4:55 PM 33.8 °F 24.3 °F 28.4 °F 81% 29.54 in 10.0 mi SE 13.8 mph - N/A   Clear
5:15 PM 32.0 °F 21.2 °F 28.4 °F 87% 29.53 in 10.0 mi ESE 16.1 mph - N/A   Clear
5:35 PM 32.0 °F 22.1 °F 28.4 °F 87% 29.53 in 10.0 mi SE 13.8 mph - N/A   Clear
5:55 PM 32.0 °F 23.6 °F 28.4 °F 87% 29.54 in 10.0 mi SE 10.4 mph - N/A   Clear
6:15 PM 30.2 °F 22.6 °F 26.6 °F 86% 29.54 in 10.0 mi SE 8.1 mph - N/A   Clear
6:35 PM 30.2 °F 20.8 °F 26.6 °F 86% 29.54 in 10.0 mi SE 11.5 mph - N/A   Clear
6:55 PM 30.2 °F 21.9 °F 28.4 °F 93% 29.53 in 10.0 mi SSE 9.2 mph - N/A   Clear
7:15 PM 32.0 °F 22.1 °F 28.4 °F 87% 29.53 in 10.0 mi SE 13.8 mph - N/A   Clear
7:35 PM 32.0 °F 24.2 °F 28.4 °F 87% 29.53 in 10.0 mi SSE 9.2 mph - N/A   Clear
7:55 PM 33.8 °F 26.4 °F 28.4 °F 81% 29.53 in 10.0 mi SSE 9.2 mph - N/A   Clear
8:15 PM 33.8 °F 26.4 °F 28.4 °F 81% 29.52 in 10.0 mi SSE 9.2 mph - N/A   Clear
8:35 PM 32.0 °F 24.8 °F 28.4 °F 87% 29.52 in 10.0 mi SSE 8.1 mph - N/A   Clear
8:55 PM 32.0 °F 25.6 °F 28.4 °F 87% 29.52 in 10.0 mi SSE 6.9 mph - N/A   Clear
9:15 PM 33.8 °F 28.6 °F 28.4 °F 81% 29.52 in 10.0 mi SSE 5.8 mph - N/A   Clear
9:35 PM 33.8 °F 29.6 °F 26.6 °F 75% 29.52 in 10.0 mi South 4.6 mph - N/A   Partly Cloudy
9:55 PM 33.8 °F 30.8 °F 26.6 °F 75% 29.53 in 10.0 mi South 3.5 mph - N/A   Partly Cloudy
10:15 PM 33.8 °F - 26.6 °F 75% 29.53 in 10.0 mi Calm Calm - N/A   Scattered Clouds
10:35 PM 33.8 °F 30.8 °F 28.4 °F 81% 29.52 in 10.0 mi South 3.5 mph - N/A   Overcast
10:55 PM 33.8 °F 28.6 °F 28.4 °F 81% 29.52 in 10.0 mi South 5.8 mph - N/A   Overcast
11:15 PM 33.8 °F 29.6 °F 28.4 °F 81% 29.51 in 10.0 mi South 4.6 mph - N/A   Overcast
11:35 PM 35.6 °F 32.8 °F 28.4 °F 75% 29.51 in 10.0 mi South 3.5 mph - N/A   Overcast
11:55 PM 35.6 °F 31.7 °F 30.2 °F 81% 29.51 in 10.0 mi South 4.6 mph - N/A   Overcast